Location: Spring Creek
(38.2870°N, 100.2160°W)
Time: 21:09:56
(UTC+00:00)

ISS - Visible Passes

Search period start: 22 January 2022 00:00
Search period end: 01 February 2022 00:00
Orbit: 413 x 422 km, 51.6° (Epoch: 22 January)

Date Brightness Start Highest point End Pass type
(mag) Time Alt. Az. Time Alt. Az. Time Alt. Az.
22 Jan -1.1 01:49:16 10° NW 01:50:36 13° NNW 01:50:36 13° NNW visible
23 Jan -1.4 01:00:24 10° WNW 01:02:37 16° NNW 01:04:38 11° NNE visible
25 Jan -1.1 01:03:09 10° NNW 01:03:52 10° NNW 01:04:34 10° N visible
30 Jan -1.0 01:53:44 10° NNW 01:54:01 11° NNW 01:54:01 11° NNW visible
31 Jan -1.5 01:06:02 10° N 01:07:37 13° NNE 01:08:03 12° NNE visible
